Date String (YYYY-MM-DD hh:mm:ss) UTC,Instrument flags,Ambient pressure (hPa),Sample flow (lpm),Bypass flow (lpm),Sample temperature (°C),Ambient temperature (°C),ASC tube jacket temperature (°C),LED temperature (°C),Box temperature (°C),Sample RH (%),Span deviation,Mass concentration (μg/m³),Mass concentration (μg/m³),Mass concentration (μg/m³)
DateTimeUTC,F1_M11,P_M11,Q1_M11,Q2_M11,T1_M11,T2_M11,T3_M11,T4_M11,T5_M11,U1_M11,ZSPAN_M11,X2_M11,X0_M11,X1_M11
2023-03-13 03:00:00,,0826.0,4.99,0.00,22.3,20.8,00.0,31.1,24.1,15.8,-000.1,0006.60,0010.27,0006.18
2023-03-13 03:01:00,,0826.0,5.00,0.00,22.3,20.8,00.0,31.1,24.0,15.8,0000.1,0006.62,0010.25,0006.20
2023-03-13 03:02:00,,0826.0,4.99,0.00,22.3,20.8,00.0,31.1,24.1,15.8,0000.2,0006.61,0010.21,0006.20
2023-03-13 03:03:00,,0826.0,4.99,0.00,22.3,20.7,00.0,31.0,24.0,15.8,0000.2,0006.62,0010.32,0006.18
2023-03-13 03:04:00,,0826.0,5.00,0.00,22.3,20.7,00.0,31.0,24.0,15.8,0000.1,0006.65,0010.44,0006.19
2023-03-13 03:05:00,,0826.0,5.00,0.00,22.3,20.7,00.0,31.0,24.0,15.8,0000.2,0006.65,0010.33,0006.19
2023-03-13 03:06:00,,0826.0,5.00,0.00,22.2,20.6,00.0,31.0,24.0,15.8,0000.8,0006.64,0010.25,0006.19
2023-03-13 03:07:00,,0826.0,4.99,0.00,22.2,20.6,00.0,31.0,24.0,15.8,0000.8,0006.63,0010.26,0006.18
2023-03-13 03:08:00,,0826.0,5.00,0.00,22.2,20.6,00.0,31.0,24.0,15.8,0000.5,0006.61,0010.18,0006.19
2023-03-13 03:09:00,,0826.0,5.00,0.00,22.2,20.6,00.0,31.0,24.0,15.8,0000.9,0006.60,0010.13,0006.19
2023-03-13 03:10:00,,0826.1,5.00,0.00,22.2,20.6,00.0,31.0,24.0,15.8,0001.2,0006.60,0009.99,0006.18
2023-03-13 03:11:00,,0826.2,5.01,0.00,22.2,20.6,00.0,31.0,23.9,15.8,0001.2,0006.60,0009.93,0006.17
2023-03-13 03:12:00,,0826.2,4.99,0.00,22.2,20.6,00.0,31.0,23.9,15.8,0001.3,0006.64,0010.69,0006.16
2023-03-13 03:13:00,,0826.2,5.00,0.00,22.2,20.5,00.0,31.0,23.9,15.8,0001.6,0006.67,0011.05,0006.18
2023-03-13 03:14:00,,0826.2,5.00,0.00,22.2,20.9,00.0,31.0,24.0,15.8,0001.9,0006.68,0011.20,0006.18
2023-03-13 03:15:00,,0826.2,4.99,0.00,22.3,21.9,00.0,30.9,24.2,15.8,0001.9,0006.67,0011.05,0006.20
2023-03-13 03:16:00,,0826.1,4.98,0.00,22.4,22.8,00.0,31.0,24.4,15.7,0001.3,0006.68,0011.25,0006.21
2023-03-13 03:17:00,,0826.2,4.99,0.00,22.5,22.8,00.0,31.0,24.5,15.7,0001.0,0006.68,0011.17,0006.22
2023-03-13 03:18:00,,0826.2,4.97,0.00,22.5,22.3,00.0,31.1,24.4,15.6,0001.8,0006.71,0011.05,0006.24
2023-03-13 03:19:00,,0826.2,5.00,0.00,22.5,21.9,00.0,31.1,24.3,15.7,0002.3,0006.74,0011.11,0006.26
2023-03-13 03:20:00,,0826.2,5.00,0.00,22.5,21.7,00.0,31.1,24.3,15.7,0001.8,0006.75,0011.13,0006.27
2023-03-13 03:21:00,,0826.2,5.00,0.00,22.5,21.5,00.0,31.1,24.3,15.7,0001.7,0006.75,0011.13,0006.29
2023-03-13 03:22:00,,0826.2,4.97,0.00,22.5,21.3,00.0,31.1,24.2,15.7,0002.2,0006.78,0011.18,0006.32
2023-03-13 03:23:00,,0826.2,4.96,0.00,22.5,21.2,00.0,31.1,24.2,15.7,0002.1,0006.78,0010.81,0006.35
2023-03-13 03:24:00,,0826.2,4.96,0.00,22.4,21.1,00.0,31.1,24.2,15.7,0002.4,0006.80,0010.62,0006.36
2023-03-13 03:25:00,,0826.2,4.96,0.00,22.4,21.0,00.0,31.1,24.2,15.7,0002.3,0006.81,0010.59,0006.37
2023-03-13 03:26:00,,0826.2,5.01,0.00,22.4,20.9,00.0,31.1,24.2,15.7,0002.3,0006.88,0010.87,0006.39
2023-03-13 03:27:00,,0826.2,5.00,0.00,22.4,20.9,00.0,31.1,24.2,15.7,0002.3,0006.89,0010.88,0006.40
2023-03-13 03:28:00,,0826.2,5.00,0.00,22.4,20.8,00.0,31.1,24.2,15.7,0002.0,0006.93,0011.19,0006.42
2023-03-13 03:29:00,,0826.2,4.99,0.00,22.4,20.8,00.0,31.1,24.2,15.7,0001.2,0006.94,0011.23,0006.42
2023-03-13 03:30:00,,0826.2,5.00,0.00,22.4,20.8,00.0,31.1,24.2,15.7,0001.1,0006.95,0011.20,0006.43
2023-03-13 03:31:00,,0826.2,5.00,0.00,22.4,20.8,00.0,31.1,24.1,15.7,0000.9,0006.95,0011.16,0006.44
2023-03-13 03:32:00,,0826.3,5.00,0.00,22.3,20.8,00.0,31.1,24.1,15.7,0000.4,0006.96,0011.14,0006.46
2023-03-13 03:33:00,,0826.4,5.01,0.00,22.3,20.7,00.0,31.1,24.1,15.7,-000.2,0006.92,0010.95,0006.46
2023-03-13 03:34:00,,0826.4,5.00,0.00,22.3,20.7,00.0,31.1,24.1,15.7,-000.8,0006.91,0010.52,0006.46
2023-03-13 03:35:00,,0826.4,5.00,0.00,22.3,20.7,00.0,31.1,24.1,15.6,-000.8,0006.90,0010.51,0006.47
2023-03-13 03:36:00,,0826.4,4.98,0.00,22.3,20.7,00.0,31.1,24.1,15.5,-000.8,0006.94,0010.55,0006.48
2023-03-13 03:37:00,,0826.4,5.00,0.00,22.3,20.7,00.0,31.1,24.1,15.5,-000.8,0006.90,0010.17,0006.47
2023-03-13 03:38:00,,0826.4,4.99,0.00,22.3,20.7,00.0,31.1,24.1,15.6,-000.8,0006.89,0010.03,0006.48
2023-03-13 03:39:00,,0826.4,5.00,0.00,22.3,20.7,00.0,31.1,24.1,15.6,-000.5,0006.88,0009.71,0006.48
2023-03-13 03:40:00,,0826.5,5.00,0.00,22.3,20.7,00.0,31.1,24.1,15.6,-000.3,0006.88,0009.66,0006.49
2023-03-13 03:41:00,,0826.5,4.99,0.00,22.3,20.7,00.0,31.1,24.1,15.6,-000.2,0006.89,0009.70,0006.50
2023-03-13 03:42:00,,0826.4,5.01,0.00,22.3,20.7,00.0,31.1,24.1,15.5,-000.1,0006.93,0009.79,0006.52
2023-03-13 03:43:00,,0826.5,5.00,0.00,22.3,20.7,00.0,31.0,24.1,15.5,-000.0,0006.99,0009.92,0006.55
2023-03-13 03:44:00,,0826.5,5.00,0.00,22.3,20.7,00.0,31.0,24.1,15.6,-000.4,0007.05,0010.04,0006.59
2023-03-13 03:45:00,,0826.5,5.00,0.00,22.2,20.7,00.0,31.0,24.1,15.6,0000.5,0007.13,0010.15,0006.67
2023-03-13 03:46:00,,0826.5,4.98,0.00,22.3,21.0,00.0,31.0,24.1,15.6,0001.2,0007.19,0010.45,0006.74
2023-03-13 03:47:00,,0826.5,4.96,0.00,22.3,22.0,00.0,31.0,24.3,15.5,0000.7,0007.20,0010.63,0006.78
2023-03-13 03:48:00,,0826.5,5.00,0.00,22.5,23.0,00.0,31.0,24.5,15.4,0000.9,0007.21,0010.67,0006.80
2023-03-13 03:49:00,,0826.5,4.99,0.00,22.6,22.9,00.0,31.1,24.6,15.3,0001.1,0007.25,0010.73,0006.83
2023-03-13 03:50:00,,0826.5,5.00,0.00,22.6,22.5,00.0,31.1,24.6,15.3,0000.7,0007.30,0010.85,0006.85
2023-03-13 03:51:00,,0826.5,4.99,0.00,22.6,22.2,00.0,31.1,24.5,15.3,0000.5,0007.30,0011.02,0006.86
2023-03-13 03:52:00,,0826.5,4.99,0.00,22.6,22.0,00.0,31.2,24.5,15.3,0000.5,0007.29,0011.05,0006.86
2023-03-13 03:53:00,,0826.5,5.00,0.00,22.6,21.8,00.0,31.2,24.4,15.3,0000.3,0007.27,0011.17,0006.85
2023-03-13 03:54:00,,0826.5,5.02,0.00,22.6,21.5,00.0,31.2,24.4,15.3,0000.2,0007.25,0011.33,0006.85
2023-03-13 03:55:00,,0826.5,5.00,0.00,22.6,21.4,00.0,31.2,24.4,15.3,0000.2,0007.25,0011.41,0006.83
2023-03-13 03:56:00,,0826.4,4.99,0.00,22.6,21.3,00.0,31.2,24.4,15.3,-000.5,0007.22,0011.50,0006.76
2023-03-13 03:57:00,,0826.5,5.00,0.00,22.6,21.2,00.0,31.2,24.4,15.3,-001.2,0007.20,0011.27,0006.69
2023-03-13 03:58:00,,0826.5,5.00,0.00,22.6,21.1,00.0,31.2,24.4,15.3,-001.3,0007.20,0011.07,0006.68
2023-03-13 03:59:00,,0826.4,5.01,0.00,22.6,21.1,00.0,31.2,24.3,15.3,-001.1,0007.20,0011.08,0006.69
